[[{"header":{"parameterUnit":"m.s-1","parameterCategory":1,"la1":30.2991,"la2":30.254,"lo1":-89.0895,"lo2":-89.0444,"dy":0.0017,"dx":0.0017,"nx":28,"ny":28,"refTime":"2026-01-30T09:00:00:Z","depth":0,"parameterNumber":2,"parameterNumberName":"U-component_of_WINDS"},"data":[0,0,0,0,0,0,0,0,0,0,0,0,0,0,0,0,0,0,0,0,0,0,0,0,0,0,0,0,0,0,0,0,0,0,0,0,0,0,0,0,0,0,0,0,0,0,0,0,0,0,0,0,0,0,0,0,0,0,2.4866,2.4867,0,2.4918,2.4918,2.4919,2.4916,2.4915,2.4914,2.4913,2.4964,2.4966,2.4968,0,0,0,0,0,0,0,0,0,0,0,0,0,2.4764,2.4766,2.4866,2.4867,2.4867,2.4917,2.4918,2.4919,2.4916,2.4915,2.4914,2.4913,2.4964,2.4966,2.4969,0,0,0,0,0,0,0,0,0,0,0,0,0,2.4811,2.4767,2.4866,2.4872,2.4873,2.4917,2.4918,2.4919,2.4916,2.4915,2.4914,2.4913,2.4963,2.4966,2.4969,2.501,0,0,2.4978,2.498,0,0,0,0,0,0,0,0,2.4809,2.4815,2.487,2.4871,2.4873,2.4909,2.4901,2.495,2.4916,2.4899,2.4913,2.4912,2.4947,2.4951,2.4963,2.5013,2.5015,2.4979,2.4981,2.4982,2.4983,0,0,0,0,0,0,0,2.4805,2.4813,2.4886,2.4871,2.4873,2.4872,2.4877,2.491,2.4929,2.4901,2.4901,2.4907,2.4947,2.496,2.4964,2.5016,2.4979,2.4981,2.4983,2.4984,2.5103,2.5104,0,0,0,0,0,0,2.4801,2.481,2.4885,2.4888,2.4837,2.4874,2.4881,2.4898,2.4928,2.4932,2.4908,2.4907,2.4956,2.4961,2.4966,2.5017,2.4982,2.4985,2.4987,2.5102,2.5103,2.5105,0,0,0,0,0,0,2.4799,2.4808,2.4883,2.4849,2.4859,2.4877,2.4898,2.49,2.4913,2.4934,2.4937,2.4918,2.4955,2.4962,2.5,2.5018,2.4986,2.4989,2.51,2.5102,2.5104,2.5118,0,0,0,0,0,0,2.4796,2.4807,2.4823,2.4849,2.486,2.4915,2.4899,2.4902,2.4919,2.4917,2.4944,2.4947,2.4955,2.4995,2.5003,2.5022,2.4991,2.5098,2.5101,2.5103,2.5116,2.512,2.5124,0,0,0,0,0,2.4792,2.4824,2.4824,2.4833,2.4881,2.4916,2.4923,2.4931,2.492,2.4936,2.495,2.4946,2.5016,2.4999,2.5008,2.5028,2.5097,2.51,2.5103,2.5114,2.5119,2.5124,0,0,0,0,0,0,2.4798,2.4828,2.4827,2.4869,2.489,2.4916,2.4936,2.4936,2.496,2.4958,2.4967,2.4973,2.5011,2.5024,2.5005,2.507,2.5055,2.506,2.506,2.5066,2.507,2.5065,2.4994,0,0,0,0,0,2.4804,2.4831,2.4856,2.489,2.4901,2.4917,2.4933,2.4938,2.496,2.4969,2.4985,2.5006,2.5033,2.505,2.5076,2.5119,2.5124,2.5137,2.5141,2.5144,2.5148,2.5171,2.5177,2.5114,2.5114,2.5114,0,0,2.4817,2.4837,2.4853,2.4892,2.4909,2.4936,2.4924,2.4954,2.4974,2.4973,2.501,2.5023,2.5047,2.5088,2.5107,2.5099,2.5167,2.5148,2.515,2.5152,2.5175,2.5181,2.5186,2.5116,2.5116,2.5115,0,0,2.4854,2.4872,2.4903,2.4921,2.4947,2.4958,2.4966,2.4992,2.5001,2.5038,2.5038,2.5063,2.5108,2.5126,2.5141,2.5187,2.5185,2.5196,2.5216,2.5239,2.5244,2.5248,2.5264,2.527,2.5199,2.52,2.52,0,2.4867,2.4908,2.4918,2.4949,2.4966,2.4967,2.4998,2.5015,2.5049,2.506,2.5052,2.511,2.5127,2.5172,2.5183,2.5196,2.5204,2.5192,2.5242,2.5247,2.5251,2.5267,2.5273,2.5201,2.52,2.52,2.52,0,2.4922,2.4951,2.4973,2.5006,2.5026,2.5056,2.5071,2.509,2.5094,2.5105,2.5144,2.5164,2.5195,2.5206,2.5209,2.5252,2.5246,2.5241,2.5225,2.5258,2.5273,2.5279,2.5202,2.5202,2.5201,2.5201,0,0,2.4962,2.5002,2.501,2.5025,2.5056,2.5078,2.5109,2.514,2.5156,2.5179,2.5205,2.5245,2.524,2.5257,2.5263,2.5284,2.5319,2.5275,2.5276,2.5282,2.5367,2.537,2.5377,2.5319,2.532,2.5321,2.5365,0,2.5002,2.5057,2.5068,2.5116,2.5143,2.5146,2.5173,2.5194,2.5207,2.5232,2.5245,2.5273,2.5265,2.5275,2.5296,2.531,2.5336,2.5308,2.5342,2.5343,2.5334,2.5385,2.5388,2.5428,2.537,2.5371,2.5372,0,2.5055,2.5081,2.5132,2.516,2.5171,2.5195,2.5225,2.5249,2.5274,2.5281,2.5302,2.5306,2.5338,2.5323,2.5367,2.5348,2.5363,2.5373,2.5375,2.5377,2.5358,2.5387,2.5441,2.5447,2.5381,2.5381,2.538,0,2.5079,2.5126,2.5163,2.5176,2.521,2.5227,2.5241,2.5265,2.5283,2.5309,2.5321,2.535,2.5366,2.5388,2.54,2.5388,2.5444,2.543,2.5451,2.5451,2.5461,2.546,2.5517,2.5473,2.5473,2.5473,2.5473,0,2.5121,2.5152,2.5174,2.5196,2.5231,2.5244,2.5278,2.5292,2.5314,2.5339,2.5344,2.5368,2.5383,2.5409,2.5418,2.5454,2.5461,2.5468,2.547,2.5467,2.5466,2.5476,2.5473,2.5475,2.5474,2.5474,2.5474,0,2.5152,2.5168,2.5208,2.5238,2.5246,2.527,2.5295,2.5317,2.533,2.5362,2.5371,2.5391,2.5422,2.5437,2.5475,2.5482,2.5522,2.5523,2.5513,2.5514,2.5534,2.5532,2.5598,2.5608,2.5559,2.5559,2.5559,0,2.5177,2.5201,2.5233,2.5251,2.5266,2.5295,2.5313,2.5328,2.5347,2.5378,2.5396,2.5428,2.5453,2.5503,2.5521,2.555,2.5551,2.5573,2.5555,2.5552,2.5551,2.5548,2.5551,2.5575,2.5576,2.5576,2.5576,0,2.522,2.5228,2.5254,2.5285,2.5307,2.5332,2.5356,2.537,2.5388,2.541,2.5442,2.5462,2.5501,2.5532,2.5564,2.5579,2.558,2.5582,2.5588,2.5585,2.5578,2.5581,2.5521,2.558,2.558,2.5579,2.5579,2.5579,2.5248,2.527,2.5296,2.5327,2.5347,2.5369,2.5392,2.5408,2.5436,2.5469,2.5476,2.551,2.5536,2.5578,2.5595,2.5621,2.5616,2.5626,2.5628,2.563,2.563,2.5575,2.5627,2.5627,2.5627,2.5627,2.5627,0,2.5291,2.5309,2.5336,2.537,2.5394,2.5396,2.5423,2.5443,2.5473,2.5497,2.5522,2.556,2.559,2.5612,2.5643,2.5661,2.5662,2.5668,2.5666,2.567,2.5633,2.5624,2.5666,2.5666,2.5666,2.5666,2.5666,2.5666,2.5316,2.5352,2.5363,2.541,2.5427,2.5461,2.5476,2.5498,2.5517,2.5559,2.5584,2.5599,2.5622,2.5655,2.5684,2.5689,2.57,2.5706,2.5711,2.5676,2.5672,2.5668,2.566,2.5709,2.5709,2.5745,2.5746,2.5746]},{"header":{"parameterUnit":"m.s-1","parameterCategory":1,"la1":30.2991,"la2":30.254,"lo1":-89.0895,"lo2":-89.0444,"dy":0.0017,"dx":0.0017,"nx":28,"ny":28,"refTime":"2026-01-30T09:00:00:Z","depth":0,"parameterNumber":3,"parameterNumberName":"V-component_of_WINDS"},"data":[0,0,0,0,0,0,0,0,0,0,0,0,0,0,0,0,0,0,0,0,0,0,0,0,0,0,0,0,0,0,0,0,0,0,0,0,0,0,0,0,0,0,0,0,0,0,0,0,0,0,0,0,0,0,0,0,0,0,-8.2416,-8.2419,0,-8.2637,-8.264,-8.2642,-8.2576,-8.2571,-8.2567,-8.2562,-8.2784,-8.2794,-8.2804,0,0,0,0,0,0,0,0,0,0,0,0,0,-8.1933,-8.1942,-8.2416,-8.2419,-8.2422,-8.2637,-8.264,-8.2643,-8.2577,-8.2571,-8.2565,-8.256,-8.2781,-8.2793,-8.2805,0,0,0,0,0,0,0,0,0,0,0,0,0,-8.2147,-8.1945,-8.2416,-8.2415,-8.2417,-8.2636,-8.264,-8.2644,-8.2578,-8.2571,-8.2564,-8.2557,-8.2777,-8.2792,-8.2807,-8.304,0,0,-8.2854,-8.286,0,0,0,0,0,0,0,0,-8.2135,-8.2165,-8.2412,-8.2415,-8.2418,-8.2572,-8.2551,-8.2776,-8.2579,-8.2517,-8.2562,-8.2554,-8.2719,-8.2739,-8.2795,-8.305,-8.306,-8.2855,-8.2864,-8.2871,-8.2875,0,0,0,0,0,0,0,-8.212,-8.2155,-8.2503,-8.2416,-8.2419,-8.2402,-8.2425,-8.2593,-8.2654,-8.2521,-8.2517,-8.2544,-8.2719,-8.2781,-8.28,-8.3063,-8.2855,-8.2868,-8.2878,-8.2884,-8.352,-8.3528,0,0,0,0,0,0,-8.2104,-8.2143,-8.2496,-8.251,-8.2257,-8.2416,-8.2442,-8.2529,-8.2652,-8.2664,-8.255,-8.2541,-8.2758,-8.2782,-8.2807,-8.3089,-8.2871,-8.2885,-8.2894,-8.3513,-8.3522,-8.353,0,0,0,0,0,0,-8.2094,-8.2136,-8.2487,-8.2326,-8.2369,-8.2432,-8.2531,-8.2537,-8.2599,-8.2673,-8.2683,-8.2602,-8.2753,-8.2786,-8.2983,-8.3095,-8.2892,-8.2906,-8.3503,-8.3515,-8.3526,-8.3652,0,0,0,0,0,0,-8.208,-8.2133,-8.2223,-8.2328,-8.2378,-8.2661,-8.2538,-8.2547,-8.2626,-8.2615,-8.2725,-8.2736,-8.275,-8.296,-8.2998,-8.3113,-8.2918,-8.3494,-8.3509,-8.3522,-8.3638,-8.3667,-8.3691,0,0,0,0,0,-8.2063,-8.2248,-8.2228,-8.2271,-8.2492,-8.2667,-8.2696,-8.271,-8.2635,-8.2726,-8.2774,-8.2733,-8.3077,-8.2981,-8.3023,-8.3144,-8.3487,-8.3504,-8.3521,-8.3626,-8.3661,-8.369,0,0,0,0,0,0,-8.2153,-8.2262,-8.224,-8.2466,-8.2558,-8.2656,-8.277,-8.2746,-8.286,-8.2845,-8.2856,-8.2881,-8.3084,-8.3133,-8.3025,-8.3376,-8.327,-8.3297,-8.3336,-8.337,-8.3395,-8.3379,-8.2931,0,0,0,0,0,-8.2199,-8.2334,-8.2421,-8.2612,-8.2659,-8.2707,-8.2784,-8.2787,-8.2882,-8.2921,-8.2983,-8.3076,-8.3205,-8.329,-8.3413,-8.3645,-8.3668,-8.3749,-8.3775,-8.3796,-8.3819,-8.3946,-8.3983,-8.3587,-8.3587,-8.3587,0,0,-8.2296,-8.2372,-8.2456,-8.2632,-8.2704,-8.2842,-8.274,-8.2891,-8.2993,-8.2943,-8.3134,-8.3183,-8.3287,-8.3503,-8.3601,-8.3551,-8.3933,-8.3818,-8.3835,-8.3846,-8.3967,-8.4005,-8.4038,-8.3599,-8.3597,-8.3595,0,0,-8.2543,-8.2614,-8.2781,-8.2855,-8.2966,-8.2997,-8.3037,-8.3139,-8.3171,-8.3362,-8.3328,-8.3449,-8.3671,-8.3747,-8.3815,-8.4091,-8.4058,-8.4131,-8.4268,-8.4392,-8.4423,-8.4451,-8.4549,-8.4585,-8.4153,-8.4154,-8.4154,0,-8.2648,-8.2857,-8.2869,-8.3023,-8.3101,-8.3064,-8.3232,-8.3303,-8.3448,-8.3503,-8.3444,-8.3723,-8.379,-8.4024,-8.4091,-8.4147,-8.4193,-8.4118,-8.4418,-8.4446,-8.4471,-8.4566,-8.4603,-8.4162,-8.4161,-8.416,-8.4159,0,-8.2981,-8.3126,-8.3247,-8.339,-8.3481,-8.3642,-8.3678,-8.3769,-8.3764,-8.38,-8.3996,-8.4076,-8.4215,-8.427,-8.4266,-8.4503,-8.4469,-8.4414,-8.4309,-8.4517,-8.4606,-8.4642,-8.4173,-8.4171,-8.4168,-8.4166,0,0,-8.3291,-8.3439,-8.3483,-8.3548,-8.3667,-8.3779,-8.3937,-8.4075,-8.4153,-8.4254,-8.4387,-8.4576,-8.4527,-8.4604,-8.4608,-8.4716,-8.493,-8.4648,-8.4651,-8.4698,-8.5197,-8.5238,-8.5279,-8.4909,-8.4916,-8.4921,-8.5188,0,-8.3548,-8.3828,-8.3844,-8.4098,-8.4232,-8.4199,-8.4337,-8.4425,-8.4463,-8.4581,-8.4623,-8.4757,-8.4682,-8.4728,-8.4834,-8.4882,-8.5031,-8.4863,-8.5032,-8.5038,-8.5007,-8.5326,-8.5369,-8.5618,-8.5223,-8.5229,-8.5233,0,-8.3885,-8.3999,-8.4267,-8.4368,-8.4425,-8.4549,-8.4676,-8.479,-8.4889,-8.4909,-8.4996,-8.4985,-8.5146,-8.5035,-8.5257,-8.5143,-8.5213,-8.5247,-8.5257,-8.5273,-8.5148,-8.5351,-8.5697,-8.5734,-8.5288,-8.5284,-8.528,0,-8.4085,-8.4304,-8.4493,-8.4549,-8.4672,-8.476,-8.4815,-8.4907,-8.4989,-8.5099,-8.5153,-8.528,-8.535,-8.5448,-8.5472,-8.5389,-8.5694,-8.5585,-8.5715,-8.5715,-8.5781,-8.5776,-8.6143,-8.5826,-8.5825,-8.5824,-8.5823,0,-8.4371,-8.4536,-8.4584,-8.4701,-8.4885,-8.4901,-8.5082,-8.5131,-8.5213,-8.5338,-8.5316,-8.5432,-8.5456,-8.5578,-8.5596,-8.5778,-8.5809,-8.583,-8.5833,-8.5832,-8.583,-8.5878,-8.5862,-8.5834,-8.5832,-8.583,-8.5828,0,-8.4625,-8.4664,-8.4868,-8.4968,-8.4997,-8.5128,-8.5213,-8.5324,-8.536,-8.5518,-8.5555,-8.5612,-8.5754,-8.5787,-8.5955,-8.5968,-8.6183,-8.6169,-8.615,-8.6149,-8.6278,-8.6265,-8.6689,-8.6745,-8.639,-8.6393,-8.6396,0,-8.4805,-8.4931,-8.5046,-8.5128,-8.5188,-8.5321,-8.5404,-8.5425,-8.5513,-8.5635,-8.5732,-8.5871,-8.5984,-8.6213,-8.6268,-8.6396,-8.6385,-8.6525,-8.6404,-8.64,-8.6388,-8.6381,-8.6393,-8.6548,-8.6552,-8.6555,-8.6557,0,-8.512,-8.5134,-8.5256,-8.5386,-8.5487,-8.559,-8.5688,-8.5756,-8.579,-8.589,-8.6036,-8.6123,-8.6296,-8.6435,-8.6565,-8.6619,-8.6595,-8.6595,-8.6632,-8.6633,-8.6617,-8.6628,-8.6213,-8.6585,-8.6582,-8.658,-8.6579,-8.6578,-8.5343,-8.5454,-8.5553,-8.569,-8.5766,-8.5858,-8.5968,-8.6018,-8.6141,-8.6284,-8.6288,-8.6448,-8.6543,-8.6714,-8.6777,-8.6901,-8.6858,-8.6911,-8.6925,-8.6938,-8.695,-8.6597,-8.6924,-8.6923,-8.6923,-8.6922,-8.6922,0,-8.5658,-8.572,-8.5846,-8.5984,-8.6092,-8.6061,-8.6168,-8.626,-8.64,-8.6492,-8.6604,-8.6772,-8.6907,-8.6973,-8.7106,-8.7192,-8.7184,-8.7227,-8.7221,-8.7234,-8.698,-8.6935,-8.7231,-8.7231,-8.7231,-8.7231,-8.7231,-8.7231,-8.5834,-8.6021,-8.6046,-8.6271,-8.6331,-8.6488,-8.6552,-8.6636,-8.671,-8.6899,-8.7011,-8.7054,-8.7135,-8.7274,-8.7396,-8.7412,-8.7462,-8.7511,-8.7521,-8.7283,-8.7251,-8.7221,-8.7179,-8.7521,-8.7522,-8.7764,-8.7766,-8.7768]}]]